SL-16 DEB, 22390

Orbit data source: Space-Track

SL-16 DEB, 22390 is space debris in LEO originally from a launch on Fri, 25 Dec 1992 UTC launched from the Tyuratam Missile And Space Complex (TTMTR). Debris objects in space refer to the collection of defunct objects orbiting the Earth. Examples of debris include non-operational satellites, rocket bodies, and fragments generated from explosions, collisions, or faulty payload assembly.

Loading next visibility...
Identifier
22390, 1992-093CF
Orbit
LEO
Country
Flag of CISCIS
Related business
Manufacturer
Unknown
Mission
Spacecraft
Bus & Motor
Unknown
Mass
Unknown
Launch date (UTC)
1992-12-25 (33 years ago)
Launch vehicle
Unknown
Launch site
Tyuratam Missile And Space Complex (TTMTR)
Object type
Payload
Rocket body
Debris
Shape & HBR
Unknown shape, 0.3 m
Radar Cross Section
Medium (>0.1 m² and <1 m²)

Expand to show TLE details & history
Last TLE update: 13 hours ago

TLE from 13 hours ago
0 SL-16 DEB
1 22390U 92093CF  26126.90025726 -.00000019  00000-0  15285-4 0  9993
2 22390  71.1712 292.2366 0082424  24.7322 335.7713 14.06557342667709
Epoch: 2026-05-06T21:36Z
TLE epoch observation values (Epoch: 2026-05-06T21:36:22.227Z)
Latitude
-0.00004°
Longitude
103.38986°
Altitude
819.166 km
Speed
7.472 km/s
True Right ascension
19h 28m 56s
True Declination
0° 00' 00"
Sunlit
Object was in daylight at epoch
Visualization orbit readout
Latitude
Unknown
Longitude
Unknown
Altitude
Unknown
Speed
Unknown
Apparent Right ascension
Unknown
Apparent Declination
Unknown
Sunlit
N/A
Visualization observer readout
Local Sidereal Time
18:16:30
Azimuth
Unknown
Elevation
Unknown
Doppler factor
Unknown
Orbital elements
Apogee altitude
928.827 km
Perigee altitude
809.358 km
Semi-major axis
7,247.23 km
Eccentricity
0.00824
Inclination
71.1712°
RAAN
292.2366°
Arg. of periapsis
24.7322°
True anomaly
335.38002°
Mean anomaly
335.7713°
Eccentric anomaly
335.57603°
Mean motion
3.51791 °/min
Orbital period
102.33 mins
BSTAR
0.000015285
Loading maneuver chart data...
Computing Atmospheric mass density...
Loading historical data...
Loading historical data...
Loading historical data...
Loading historical data...
Loading historical data...
Loading historical data...
Loading historical data...

Documentation

Showing up to 5 results
|